Weather History for Memphis, TN

Change the Weather History Date:

Wednesday, June 6, 2012

  Actual Average Record
Temperature  
Mean Temperature 74 °F 78 °F  
Max Temperature 83 °F 87 °F 100 °F (1977)
Min Temperature 65 °F 68 °F 54 °F (1946)
Degree Days  
Heating Degree Days 0 0  
Month to date heating degree days 0 0  
Since 1 June heating degree days 0 0  
Since 1 July heating degree days 2171 2964  
Cooling Degree Days 9 13  
Month to date cooling degree days 53 72  
Year to date cooling degree days 633 393  
Since 1 June cooling degree days 53 72  
Growing Degree Days 23 (Base 50)    
Moisture  
Dew Point 54 °F    
Average Humidity 55    
Maximum Humidity 73    
Minimum Humidity 36    
Precipitation  
Precipitation 0.00 in 0.13 in 2.29 in (1978)
Month to date precipitation 0.90 0.83  
Year to date precipitation 14.22 25.11  
Snow  
Snow 0.00 in 0.00 in - ()
Month to date snowfall 0.0 0.0  
Since 1 June snowfall 0.0 0.0  
Since 1 July snowfall 1.4 3.8  
Snow Depth 0.00 in    
Sea Level Pressure  
Sea Level Pressure 29.92 in    
Wind  
Wind Speed 10 mph (NE)    
Max Wind Speed 20 mph    
Max Gust Speed 26 mph    
Visibility 10 miles    
Events      
T = Trace of Precipitation, MM = Missing Value Source: NWS Daily Summary

Daily Weather History Graph

Daily Weather History Graph

Search for Another Location

Airport:

Trip Planner

Search our weather history database for the weather conditions in past years. The results will help you decide how hot, cold, wet, or windy it might be!

Date:

Astronomy

Jun. 06, 2012 Rise Set
Actual Time 5:45 AM CDT 8:11 PM CDT
Civil Twilight 5:16 AM CDT 8:41 PM CDT
Nautical Twilight 4:39 AM CDT 9:17 PM CDT
Astronomical Twilight 4:00 AM CDT 9:57 PM CDT
Moon 10:27 PM CDT (6/6) 8:04 AM CDT (6/6)
Length of Visible Light 15h 25m
Length of Day
14h 26m
Waning Gibbous, 93% of the Moon is Illuminated
Jun 6
Waning Gibbous
Jun 11
Last Quarter
Jun 19
New
Jun 26
First Quarter
Jul 3
Full

Hourly Weather History & Observations

Time (CDT) Temp. Heat Index Dew Point Humidity Pressure Visibility Wind Dir Wind Speed Gust Speed Precip Events Conditions
12:54 AM 73.0 °F - 55.0 °F 53% 29.87 in 10.0 mi ENE 8.1 mph - N/A   Clear
1:54 AM 69.8 °F - 55.4 °F 60% 29.88 in 10.0 mi ENE 8.1 mph - N/A   Clear
2:54 AM 69.1 °F - 55.0 °F 61% 29.86 in 10.0 mi ENE 8.1 mph - N/A   Clear
3:54 AM 70.0 °F - 54.0 °F 57% 29.86 in 10.0 mi ENE 6.9 mph - N/A   Clear
4:54 AM 68.0 °F - 55.0 °F 63% 29.87 in 10.0 mi ENE 4.6 mph - N/A   Partly Cloudy
5:54 AM 64.9 °F - 55.0 °F 70% 29.89 in 10.0 mi NNE 3.5 mph - N/A   Partly Cloudy
6:54 AM 66.9 °F - 55.9 °F 68% 29.91 in 10.0 mi ENE 6.9 mph - N/A   Partly Cloudy
7:54 AM 70.0 °F - 55.0 °F 59% 29.91 in 10.0 mi NE 9.2 mph - N/A   Partly Cloudy
8:54 AM 75.0 °F - 55.0 °F 50% 29.94 in 10.0 mi ENE 6.9 mph - N/A   Clear
9:54 AM 77.0 °F - 53.1 °F 43% 29.94 in 10.0 mi ENE 6.9 mph - N/A   Clear
10:54 AM 80.1 °F 79.9 °F 53.1 °F 39% 29.94 in 10.0 mi NE 18.4 mph 23.0 mph N/A   Partly Cloudy
11:54 AM 81.0 °F - 52.0 °F 36% 29.93 in 10.0 mi NNE 18.4 mph 24.2 mph N/A   Clear
12:54 PM 81.0 °F 80.5 °F 54.0 °F 39% 29.93 in 10.0 mi NNE 15.0 mph 20.7 mph N/A   Partly Cloudy
1:54 PM 82.0 °F 81.2 °F 53.1 °F 37% 29.93 in 10.0 mi NE 12.7 mph 20.7 mph N/A   Partly Cloudy
2:54 PM 82.0 °F 81.4 °F 55.0 °F 39% 29.93 in 10.0 mi North 8.1 mph - N/A   Partly Cloudy
3:54 PM 82.9 °F 81.9 °F 54.0 °F 37% 29.93 in 10.0 mi ENE 12.7 mph - N/A   Partly Cloudy
4:54 PM 82.4 °F 81.4 °F 53.6 °F 37% 29.94 in 10.0 mi NNE 13.8 mph 19.6 mph N/A   Partly Cloudy
5:54 PM 81.0 °F 80.4 °F 53.1 °F 38% 29.93 in 10.0 mi NE 8.1 mph - N/A   Partly Cloudy
6:54 PM 80.1 °F - 51.1 °F 36% 29.92 in 10.0 mi NE 12.7 mph - N/A   Partly Cloudy
7:54 PM 78.1 °F - 50.0 °F 37% 29.93 in 10.0 mi NE 10.4 mph - N/A   Partly Cloudy
8:54 PM 75.9 °F - 51.1 °F 42% 29.94 in 10.0 mi NE 9.2 mph - N/A   Partly Cloudy
9:54 PM 73.9 °F - 52.0 °F 46% 29.98 in 10.0 mi NE 8.1 mph - N/A   Clear
10:54 PM 73.0 °F - 52.0 °F 48% 29.99 in 10.0 mi ENE 10.4 mph - N/A   Clear
11:54 PM 72.0 °F - 52.0 °F 49% 30.00 in 10.0 mi NE 10.4 mph - N/A   Clear